Regional Weather Roundup
Issued by NWS

Home | Current Version | Previous Version | Text Only | Print | Product List | Glossary On
Versions: 1 2 3 4 5 6 7 8 9 10 11 12 13 14 15 16 17 18 19 20 21 22 23 24 25 26 27 28 29 30 31 32 33 34 35 36 37 38 39 40 41 42 43 44 45 46 47 48 49 50
118
ASUS43 KDTX 010301
RWRMI
MICHIGAN HOURLY REGIONAL WEATHER ROUNDUP
NATIONAL WEATHER SERVICE DETROIT/PONTIAC MI
1100 PM EDT SAT APR 30 2016

NOTE: "FAIR" INDICATES FEW OR NO CLOUDS BELOW 12,000 FEET WITH NO
SIGNIFICANT WEATHER AND/OR OBSTRUCTION TO VISIBILITY.

MIZ047>049-052>055-059>063-066>070-074>076-081>083-010400-
SOUTHEAST LOWER MICHIGAN

CITY           SKY/WX    TMP DP  RH WIND       PRES   REMARKS
ADRIAN         LGT RAIN  47  46  97 E13       29.95F
ALMA           RAIN      44  42  95 NE8       30.05R
ANN ARBOR      RAIN      48  47  96 E10       29.96F FOG
BAD AXE        LGT RAIN  44  37  77 E5        30.06S
CARO           LGT RAIN  43  39  85 CALM      30.04S
DETROIT CITY   LGT RAIN  47  46  97 E12       29.99F FOG
DETROIT        RAIN      49  47  93 NE9       29.98F FOG
FLINT          LGT RAIN  46  41  82 E10       30.02F
GROSSE ILE     RAIN      48  46  93 E10       29.96F
HILLSDALE      RAIN      46  46 100 E7        29.94S
HOWELL         RAIN      48  47  97 E7        29.98F

CITY           SKY/WX    TMP DP  RH WIND       PRES   REMARKS
JACKSON        RAIN      47  46  97 NE8       29.96F FOG
LAMBERTVILLE   RAIN      50  48  93 E9G16     29.95F
LANSING        LGT RAIN  48  46  93 NE7       30.01R FOG
LAPEER         LGT RAIN  43  41  93 CALM      30.03F
MASON          RAIN      47  45  94 NE9       29.98S
MONROE         LGT RAIN  48  48  98 E9G21     29.95F
MT. CLEMENS    LGT RAIN  47  47 100 NE10      30.00F FOG
PONTIAC        LGT RAIN  45  43  93 NE8       29.99F FOG
PORT HOPE        N/A     43  37  79 E6        30.05F
PORT HURON     DRIZZLE   45  43  93 NE7       30.02F
TRI CITIES     LGT RAIN  47  38  71 NE7       30.06S
MIDLAND        LGT RAIN  43  38  83 NE3       30.07R
TROY           LGT RAIN  47  46  96 NE8       30.01F
SAGINAW HB     LGT RAIN  45  39  81 NE6       30.05S
$$
MIZ043>046-050>051-056>058-064>065-071>073-077>080-010400-
SOUTHWEST LOWER MICHIGAN

CITY           SKY/WX    TMP DP  RH WIND       PRES   REMARKS
BATTLE CREEK   LGT RAIN  48  46  93 NE8       29.97R FOG
BENTON HARBOR  CLOUDY    49  46  90 E10       29.93F FOG
BIG RAPIDS     LGT RAIN  44  38  77 E9G16     30.05S
COLDWATER      LGT RAIN  47  46  98 E9        29.94S
FREMONT        LGT RAIN  45  44  96 NE9       30.03F
HOLLAND        LGT RAIN  49  46  90 NE8       30.00R
GRAND RAPIDS   RAIN      48  46  93 NE10      30.01S FOG
IONIA          RAIN      47  46  97 NE8       30.01R
KALAMAZOO      LGT RAIN  49  45  86 NE7       29.96R FOG
LUDINGTON      LGT RAIN  46  44  93 CALM      30.07S
MARSHALL       RAIN      47  45  95 NE5       29.96S
MOUNT PLEASANT   N/A     42  38  83 NE7       30.06S
MUSKEGON       RAIN      47  42  83 NE15      30.00F
$$
MIZ016>042-010400-
NORTHERN LOWER MICHIGAN

CITY           SKY/WX    TMP DP  RH WIND       PRES   REMARKS
ALPENA         CLOUDY    46  30  53 NE5       30.11S
BEAVER ISLAND  CLOUDY    44  35  70 NE8       30.14F
BELLAIRE       CLOUDY    52  25  35 CALM      30.09S
CADILLAC       DRIZZLE   48  33  56 SE9       30.06S
CHARLEVOIX     CLOUDY    50  26  40 NE6       30.14S
FRANKFORT      CLOUDY    52  34  50 NE3       30.07S
GAYLORD        CLOUDY    49  25  39 NE6       30.09F
HARBOR SPRINGS CLOUDY    48  25  40 NE5       30.11F
HOUGHTON LAKE  CLOUDY    49  26  41 E7        30.08R
MANISTEE       CLOUDY    52  30  43 SE5       30.07S
OSCODA         CLOUDY    48  31  51 NE6       30.08S
PELLSTON       CLOUDY    45  29  53 NE5       30.13S
ROGERS CITY    CLOUDY    40  35  82 CALM      30.13F
TRAVERSE CITY  CLOUDY    48  36  63 CALM      30.07S
$$
MIZ007>008-015-010400-
EASTERN UPPER MICHIGAN

CITY           SKY/WX    TMP DP  RH WIND       PRES   REMARKS
KINROSS          N/A     43  36  75 NW3       30.14F
MACKINAC ISLAN MOCLDY    44  30  59 N8        30.13F
NEWBERRY       CLOUDY    40  34  79 NW3       30.15F
S. S. MARIE    PTCLDY    41  34  76 W3        30.15S
MUNISING         N/A     38  35  89 N3        30.18F
$$
MIZ004>006-011>014-085-010400-
CENTRAL UPPER MICHIGAN

CITY           SKY/WX    TMP DP  RH WIND       PRES   REMARKS
MANISTIQUE     PTCLDY    42  34  73 N10       30.15F
ESCANABA       CLOUDY    43  34  70 N8        30.14F
MENOMINEE      CLOUDY    46  30  53 NE15G21   30.10S
SAWYER-GWINN   CLEAR     32  30  91 N6        30.16F WCI  27
$$
MIZ001>003-009>011-084-010400-
WESTERN UPPER MICHIGAN

CITY           SKY/WX    TMP DP  RH WIND       PRES   REMARKS
IRON MOUNTAIN  CLOUDY    44  31  60 N8G18     30.13F
HOUGHTON       CLEAR     40  33  76 NE9       30.21S WCI  34
COPPER HARBOR    N/A     41  37  86 CALM      30.24R
IRONWOOD         N/A     39  34  81 E7        30.18F WCI  34
$$

ABBREVIATIONS USED IN REMARKS
   TC - TEMPERATURE IN CELSIUS
  WCI - WIND CHILL INDEX
   HX - HEAT INDEX
  VSB - VISIBILITY





USA.gov is the U.S. government's official web portal to all federal, state and local government web resources and services.